,,,PA_Meas_PMT16A,,PR_Meas_QMR101_102,,RH_Meas_QMH101,,SR_Meas_QMS101,,TA_Meas_QMH101,,GenWind,,GenWind,
date,time,status,PA,status,PR,status,RH,status,SR,status,TA,status,DirAvg,status,SpdAvg,
2010-10-10, 00:00:04,VALID,1004.22,VALID,0,INVALID,137.175,VALID,29.0627,VALID,23.7194,VALID,54,VALID,1.90313,
2010-10-10, 00:01:04,VALID,1004.24,VALID,0,INVALID,137.183,VALID,28.3588,VALID,23.7212,VALID,37,VALID,1.05,
2010-10-10, 00:02:04,VALID,1004.21,VALID,0,INVALID,137.106,VALID,27.9565,VALID,23.7017,VALID,359,VALID,2.59805,
2010-10-10, 00:03:04,VALID,1004.2,VALID,0,INVALID,137.106,VALID,27.6548,VALID,23.7017,VALID,12,VALID,2.13633,
2010-10-10, 00:04:04,VALID,1004.23,VALID,0,INVALID,137.068,VALID,27.152,VALID,23.7212,VALID,6,VALID,1.44727,
2010-10-10, 00:05:04,VALID,1004.2,VALID,0,INVALID,137.083,VALID,26.4481,VALID,23.7017,VALID,43,VALID,1.21016,
2010-10-10, 00:06:04,VALID,1004.23,VALID,0,INVALID,137.06,VALID,25.8447,VALID,23.7212,VALID,99,VALID,0.611719,
2010-10-10, 00:07:04,VALID,1004.19,VALID,0,INVALID,136.984,VALID,25.543,VALID,23.7212,VALID,107,VALID,0.487891,
2010-10-10, 00:08:04,VALID,1004.25,VALID,0,INVALID,137.022,VALID,26.0458,VALID,23.7017,VALID,78,VALID,0.866797,
2010-10-10, 00:09:04,VALID,1004.19,VALID,0,INVALID,137.152,VALID,27.3531,VALID,23.6628,VALID,86,VALID,2.00156,
2010-10-10, 00:10:04,VALID,1004.15,VALID,0,INVALID,137.312,VALID,28.8616,VALID,23.6239,VALID,80,VALID,1.59805,
2010-10-10, 00:11:04,VALID,1004.12,VALID,0,INVALID,137.381,VALID,30.6717,VALID,23.6062,VALID,88,VALID,0.854688,
2010-10-10, 00:12:04,VALID,1004.06,VALID,0,INVALID,137.404,VALID,31.8785,VALID,23.6257,VALID,34,VALID,0.748438,
2010-10-10, 00:13:04,VALID,1004,VALID,0,INVALID,137.335,VALID,32.3813,VALID,23.6257,VALID,53,VALID,0.984766,
2010-10-10, 00:14:04,VALID,1003.96,VALID,0,INVALID,137.427,VALID,32.4818,VALID,23.6257,VALID,63,VALID,0.407813,
2010-10-10, 00:15:04,VALID,1003.97,VALID,0,INVALID,137.457,VALID,32.3813,VALID,23.6062,VALID,12,VALID,1.7207,
2010-10-10, 00:16:04,VALID,1003.98,VALID,0,INVALID,137.526,VALID,32.2807,VALID,23.6062,VALID,72,VALID,0.322266,
2010-10-10, 00:17:04,VALID,1004.01,VALID,0,INVALID,137.602,VALID,32.4818,VALID,23.5868,VALID,73,VALID,0.730078,
2010-10-10, 00:18:04,VALID,1003.97,VALID,0,INVALID,137.625,VALID,32.3813,VALID,23.5868,VALID,2,VALID,0.575391,
2010-10-10, 00:19:04,VALID,1003.98,VALID,0,INVALID,137.579,VALID,32.1801,VALID,23.5868,VALID,83,VALID,0.94375,
2010-10-10, 00:20:04,VALID,1003.96,VALID,0,INVALID,137.633,VALID,32.0796,VALID,23.5673,VALID,20,VALID,0.567969,
2010-10-10, 00:21:04,VALID,1003.98,VALID,0,INVALID,137.579,VALID,31.979,VALID,23.5673,VALID,90,VALID,0.302344,
2010-10-10, 00:22:04,VALID,1003.97,VALID,0,INVALID,137.625,VALID,32.0796,VALID,23.5266,VALID,82,VALID,0.481641,
2010-10-10, 00:23:04,VALID,1003.97,VALID,0,INVALID,137.549,VALID,31.979,VALID,23.5868,VALID,82,VALID,0.140625,
2010-10-10, 00:24:04,VALID,1003.98,VALID,0,INVALID,137.564,VALID,31.8785,VALID,23.5673,VALID,65,VALID,0.178516,
2010-10-10, 00:25:04,VALID,1003.99,VALID,0,INVALID,137.533,VALID,31.979,VALID,23.5673,VALID,64,VALID,0.321094,
2010-10-10, 00:26:04,VALID,1003.96,VALID,0,INVALID,137.434,VALID,31.8785,VALID,23.5655,VALID,46,VALID,0.575781,
2010-10-10, 00:27:04,VALID,1003.96,VALID,0,INVALID,137.305,VALID,31.8785,VALID,23.6062,VALID,33,VALID,0.747656,
2010-10-10, 00:28:04,VALID,1003.96,VALID,0,INVALID,137.411,VALID,31.979,VALID,23.5868,VALID,34,VALID,0.521094,
2010-10-10, 00:29:04,VALID,1003.96,VALID,0.5,INVALID,137.411,VALID,32.2807,VALID,23.585,VALID,12,VALID,1.20195,
2010-10-10, 00:30:04,VALID,1003.95,VALID,0,INVALID,137.373,VALID,32.4818,VALID,23.585,VALID,28,VALID,0.816406,
2010-10-10, 00:31:04,VALID,1003.92,VALID,0,INVALID,137.373,VALID,32.683,VALID,23.6257,VALID,9,VALID,1.07461,
2010-10-10, 00:32:04,VALID,1003.9,VALID,0,INVALID,137.495,VALID,33.1858,VALID,23.6062,VALID,19,VALID,0.566406,
2010-10-10, 00:33:04,VALID,1003.89,VALID,0,INVALID,137.48,VALID,33.2863,VALID,23.585,VALID,13,VALID,0.815234,
2010-10-10, 00:34:04,VALID,1003.89,VALID,0,INVALID,137.358,VALID,33.4875,VALID,23.6257,VALID,12,VALID,0.715234,
2010-10-10, 00:35:04,VALID,1003.9,VALID,0,INVALID,137.259,VALID,33.9903,VALID,23.6859,VALID,12,VALID,0.426172,
2010-10-10, 00:36:04,VALID,1003.91,VALID,0,INVALID,137.076,VALID,34.1914,VALID,23.7035,VALID,12,VALID,0,
2010-10-10, 00:37:04,VALID,1003.89,VALID,0,INVALID,136.931,VALID,34.292,VALID,23.7637,VALID,12,VALID,0,
2010-10-10, 00:38:04,VALID,1003.89,VALID,0,INVALID,136.832,VALID,34.3925,VALID,23.7814,VALID,12,VALID,0.464844,
2010-10-10, 00:39:04,VALID,1003.87,VALID,0,INVALID,136.626,VALID,34.4931,VALID,23.8203,VALID,12,VALID,0.616797,
2010-10-10, 00:40:04,VALID,1003.86,VALID,0,INVALID,136.572,VALID,34.4931,VALID,23.8185,VALID,355,VALID,1.00469,
2010-10-10, 00:41:04,VALID,1003.81,VALID,0,INVALID,136.648,VALID,34.9959,VALID,23.8185,VALID,336,VALID,0.484766,
2010-10-10, 00:42:04,VALID,1003.79,VALID,0,INVALID,136.999,VALID,35.197,VALID,23.7601,VALID,344,VALID,0.954297,
2010-10-10, 00:43:04,VALID,1003.74,VALID,0,INVALID,137.221,VALID,35.4987,VALID,23.7017,VALID,11,VALID,0.797656,
2010-10-10, 00:44:04,VALID,1003.72,VALID,0,INVALID,137.251,VALID,35.901,VALID,23.7425,VALID,5,VALID,1.06523,
2010-10-10, 00:45:04,VALID,1003.69,VALID,0,INVALID,137.343,VALID,36.4038,VALID,23.723,VALID,16,VALID,1.09492,
2010-10-10, 00:46:04,VALID,1003.67,VALID,0,INVALID,137.472,VALID,36.5043,VALID,23.7035,VALID,9,VALID,1.05352,
2010-10-10, 00:47:04,VALID,1003.65,VALID,0,INVALID,137.465,VALID,36.806,VALID,23.7035,VALID,21,VALID,1.10352,
2010-10-10, 00:48:04,VALID,1003.6,VALID,0.5,INVALID,137.678,VALID,36.9066,VALID,23.6841,VALID,14,VALID,1.125,
2010-10-10, 00:49:04,VALID,1003.53,VALID,0,INVALID,137.861,VALID,37.0072,VALID,23.6452,VALID,23,VALID,1.08047,
2010-10-10, 00:50:04,VALID,1003.51,VALID,0,INVALID,137.732,VALID,37.4094,VALID,23.6841,VALID,19,VALID,0.75,
2010-10-10, 00:51:04,VALID,1003.48,VALID,0,INVALID,137.938,VALID,37.6105,VALID,23.6664,VALID,34,VALID,0.573438,
2010-10-10, 00:52:04,VALID,1003.46,VALID,0,INVALID,137.945,VALID,38.2139,VALID,23.6628,VALID,22,VALID,0.682031,
2010-10-10, 00:53:04,VALID,1003.41,VALID,0,INVALID,137.877,VALID,38.7167,VALID,23.7035,VALID,2,VALID,1.01328,
2010-10-10, 00:54:04,VALID,1003.41,VALID,0,INVALID,138.228,VALID,39.119,VALID,23.6646,VALID,350,VALID,1.18477,
2010-10-10, 00:55:04,VALID,1003.38,VALID,0,INVALID,138.418,VALID,39.7224,VALID,23.6239,VALID,18,VALID,1.26016,
2010-10-10, 00:56:04,VALID,1003.38,VALID,0,INVALID,138.663,VALID,40.2252,VALID,23.6239,VALID,35,VALID,1.17617,
2010-10-10, 00:57:04,VALID,1003.38,VALID,0,INVALID,138.769,VALID,40.8286,VALID,23.6628,VALID,12,VALID,0.830469,
2010-10-10, 00:58:04,VALID,1003.35,VALID,0,INVALID,138.937,VALID,41.3314,VALID,23.6841,VALID,57,VALID,0.9375,
2010-10-10, 00:59:04,VALID,1003.37,VALID,0,INVALID,139.235,VALID,41.9347,VALID,23.6628,VALID,27,VALID,1.31641,
2010-10-10, 01:00:04,VALID,1003.35,VALID,0,INVALID,139.486,VALID,42.5381,VALID,23.6805,VALID,43,VALID,1.11523,
2010-10-10, 01:01:04,VALID,1003.32,VALID,0,INVALID,139.624,VALID,43.0409,VALID,23.7407,VALID,18,VALID,1.08633,
2010-10-10, 01:02:04,VALID,1003.28,VALID,0,INVALID,140.059,VALID,43.3426,VALID,23.7212,VALID,11,VALID,1.31641,
2010-10-10, 01:03:04,VALID,1003.29,VALID,0,INVALID,140.425,VALID,43.946,VALID,23.7407,VALID,19,VALID,1.02422,
2010-10-10, 01:04:04,VALID,1003.22,VALID,0,INVALID,140.921,VALID,44.4488,VALID,23.7407,VALID,359,VALID,1.60039,
2010-10-10, 01:05:04,VALID,1003.21,VALID,0,INVALID,141.493,VALID,44.9516,VALID,23.7407,VALID,16,VALID,1.0418,
2010-10-10, 01:06:04,VALID,1003.18,VALID,0,INVALID,141.752,VALID,45.8567,VALID,23.7796,VALID,352,VALID,1.09453,
2010-10-10, 01:07:04,VALID,1003.17,VALID,0,INVALID,142.279,VALID,46.1584,VALID,23.7601,VALID,20,VALID,1.60312,
2010-10-10, 01:08:04,VALID,1003.12,VALID,0,INVALID,143.095,VALID,47.164,VALID,23.7601,VALID,359,VALID,1.34687,
2010-10-10, 01:09:04,VALID,1003.12,VALID,0,INVALID,143.659,VALID,47.6668,VALID,23.7583,VALID,14,VALID,1.66055,
2010-10-10, 01:10:04,VALID,1003.12,VALID,0,INVALID,144.316,VALID,48.0691,VALID,23.8185,VALID,15,VALID,0.829297,
2010-10-10, 01:11:04,VALID,1003.1,VALID,0,INVALID,144.712,VALID,48.6725,VALID,23.8575,VALID,17,VALID,0.675781,
2010-10-10, 01:12:04,VALID,1003.1,VALID,0,INVALID,145.162,VALID,49.0747,VALID,23.8787,VALID,100,VALID,0.491797,
2010-10-10, 01:13:04,VALID,1003.07,VALID,0,INVALID,145.551,VALID,49.477,VALID,23.8982,VALID,46,VALID,0.756641,
2010-10-10, 01:14:04,VALID,1003.05,VALID,0,INVALID,146.063,VALID,50.0803,VALID,23.8575,VALID,34,VALID,0.248437,
2010-10-10, 01:15:04,VALID,1003.06,VALID,0,INVALID,146.368,VALID,50.5832,VALID,23.8982,VALID,118,VALID,0.580078,
2010-10-10, 01:16:04,VALID,1003.04,VALID,0,INVALID,146.467,VALID,51.2871,VALID,23.9353,VALID,122,VALID,0.0515625,
2010-10-10, 01:17:04,VALID,1003.06,VALID,0,INVALID,146.551,VALID,51.8905,VALID,23.9955,VALID,122,VALID,0,
2010-10-10, 01:18:04,VALID,1003.07,VALID,0,INVALID,146.68,VALID,52.695,VALID,24.015,VALID,122,VALID,0,
2010-10-10, 01:19:04,VALID,1003.02,VALID,0,INVALID,146.818,VALID,53.4995,VALID,24.015,VALID,87,VALID,0,
2010-10-10, 01:20:04,VALID,1003.02,VALID,0,INVALID,146.925,VALID,54.304,VALID,24.0539,VALID,64,VALID,0.0976563,
2010-10-10, 01:21:04,VALID,1003.02,VALID,0,INVALID,148.45,VALID,55.1085,VALID,23.9566,VALID,7,VALID,1.14844,
2010-10-10, 01:22:04,VALID,1002.98,VALID,0,INVALID,149.007,VALID,55.913,VALID,23.9761,VALID,6,VALID,0.930469,
2010-10-10, 01:23:04,VALID,1002.96,VALID,0,INVALID,149.808,VALID,56.5164,VALID,23.9566,VALID,14,VALID,1.25625,
2010-10-10, 01:24:04,VALID,1002.96,VALID,0,INVALID,150.449,VALID,57.3209,VALID,23.9761,VALID,10,VALID,2.7793,
2010-10-10, 01:25:04,VALID,1002.93,VALID,0,INVALID,150.968,VALID,58.0248,VALID,23.9955,VALID,5,VALID,1.87031,
2010-10-10, 01:26:04,VALID,1002.92,VALID,0,INVALID,151.41,VALID,58.7288,VALID,24.015,VALID,14,VALID,2.46094,
2010-10-10, 01:27:04,VALID,1002.88,VALID,0,INVALID,151.784,VALID,59.6338,VALID,24.0132,VALID,359,VALID,2.23438,
2010-10-10, 01:28:04,VALID,1002.85,VALID,0,INVALID,151.96,VALID,60.5389,VALID,24.0326,VALID,20,VALID,1.86953,
2010-10-10, 01:29:04,VALID,1002.8,VALID,0,INVALID,152.196,VALID,61.2428,VALID,24.0132,VALID,5,VALID,3.22773,
2010-10-10, 01:30:04,VALID,1002.76,VALID,0,INVALID,152.272,VALID,62.0473,VALID,24.0132,VALID,3,VALID,3.02578,
2010-10-10, 01:31:04,VALID,1002.74,VALID,0,INVALID,152.448,VALID,62.8518,VALID,23.9937,VALID,353,VALID,2.34063,
2010-10-10, 01:32:04,VALID,1002.75,VALID,0,INVALID,152.448,VALID,63.6563,VALID,24.0132,VALID,356,VALID,1.41328,
2010-10-10, 01:33:04,VALID,1002.72,VALID,0,INVALID,152.433,VALID,64.662,VALID,24.0326,VALID,11,VALID,2.2082,
2010-10-10, 01:34:04,VALID,1002.7,VALID,0,INVALID,152.463,VALID,65.4665,VALID,24.0521,VALID,359,VALID,1.43008,
2010-10-10, 01:35:04,VALID,1002.65,VALID,0,INVALID,152.402,VALID,66.3715,VALID,24.0521,VALID,2,VALID,1.63359,
2010-10-10, 01:36:04,VALID,1002.63,VALID,0,INVALID,152.517,VALID,67.3772,VALID,24.0521,VALID,351,VALID,2.8918,
2010-10-10, 01:37:04,VALID,1002.63,VALID,0,INVALID,152.631,VALID,68.4834,VALID,24.0503,VALID,3,VALID,1.60508,
2010-10-10, 01:38:04,VALID,1002.61,VALID,0,INVALID,152.707,VALID,69.5896,VALID,24.091,VALID,359,VALID,1.55039,
2010-10-10, 01:39:04,VALID,1002.57,VALID,0,INVALID,152.7,VALID,70.8969,VALID,24.1105,VALID,358,VALID,1.94727,
2010-10-10, 01:40:04,VALID,1002.56,VALID,0,INVALID,152.761,VALID,72.1036,VALID,24.0892,VALID,360,VALID,2.19961,
2010-10-10, 01:41:04,VALID,1002.54,VALID,0,INVALID,152.73,VALID,73.5115,VALID,24.1105,VALID,1,VALID,1.19297,
2010-10-10, 01:42:04,VALID,1002.48,VALID,0,INVALID,152.738,VALID,75.02,VALID,24.13,VALID,6,VALID,1.625,
2010-10-10, 01:43:04,VALID,1002.5,VALID,0,INVALID,152.822,VALID,76.4278,VALID,24.1513,VALID,351,VALID,1.69414,
2010-10-10, 01:44:04,VALID,1002.5,VALID,0,INVALID,153.051,VALID,77.9363,VALID,24.1513,VALID,6,VALID,1.89375,
2010-10-10, 01:45:04,VALID,1002.5,VALID,0,INVALID,153.073,VALID,79.5453,VALID,24.2115,VALID,346,VALID,1.34531,
2010-10-10, 01:46:04,VALID,1002.5,VALID,0,INVALID,153.058,VALID,81.2549,VALID,24.2097,VALID,343,VALID,0.786328,
2010-10-10, 01:47:04,VALID,1002.49,VALID,0,INVALID,153.18,VALID,83.065,VALID,24.2291,VALID,344,VALID,0.801172,
2010-10-10, 01:48:04,VALID,1002.48,VALID,0,INVALID,153.188,VALID,84.9757,VALID,24.2273,VALID,342,VALID,0.870703,
2010-10-10, 01:49:04,VALID,1002.47,VALID,0,INVALID,153.234,VALID,86.7858,VALID,24.2273,VALID,18,VALID,0.91875,
2010-10-10, 01:50:04,VALID,1002.43,VALID,0,INVALID,153.302,VALID,88.7971,VALID,24.2894,VALID,13,VALID,0.843359,
2010-10-10, 01:51:04,VALID,1002.4,VALID,0,INVALID,153.31,VALID,91.3112,VALID,24.2875,VALID,15,VALID,0.540625,
2010-10-10, 01:52:04,VALID,1002.39,VALID,0,INVALID,153.325,VALID,93.3224,VALID,24.2875,VALID,1,VALID,0.242969,
2010-10-10, 01:53:04,VALID,1002.4,VALID,0,INVALID,153.478,VALID,95.4342,VALID,24.307,VALID,352,VALID,1.19492,
2010-10-10, 01:54:04,VALID,1002.34,VALID,0,INVALID,153.508,VALID,97.6466,VALID,24.3265,VALID,355,VALID,0.45625,
2010-10-10, 01:55:04,VALID,1002.31,VALID,0,INVALID,153.463,VALID,99.9596,VALID,24.3654,VALID,275,VALID,0.386719,
2010-10-10, 01:56:04,VALID,1002.3,VALID,0,INVALID,153.394,VALID,102.273,VALID,24.4062,VALID,275,VALID,0.00273437,
2010-10-10, 01:57:04,VALID,1002.24,VALID,0,INVALID,153.417,VALID,104.686,VALID,24.4043,VALID,267,VALID,0.291406,
2010-10-10, 01:58:04,VALID,1002.24,VALID,0,INVALID,153.524,VALID,107.2,VALID,24.3849,VALID,267,VALID,0.0691406,
2010-10-10, 01:59:04,VALID,1002.24,VALID,0,INVALID,153.737,VALID,109.513,VALID,24.3849,VALID,17,VALID,1.07187,
2010-10-10, 02:00:04,VALID,1002.18,VALID,0,INVALID,153.6,VALID,112.128,VALID,24.383,VALID,354,VALID,0.231641,
2010-10-10, 02:01:04,VALID,1002.16,VALID,0,INVALID,153.76,VALID,114.541,VALID,24.4043,VALID,25,VALID,1.19414,
2010-10-10, 02:02:04,VALID,1002.11,VALID,0,INVALID,153.585,VALID,117.156,VALID,24.422,VALID,63,VALID,0.396875,
2010-10-10, 02:03:04,VALID,1002.09,VALID,0,INVALID,153.394,VALID,119.972,VALID,24.523,VALID,62,VALID,0.00117188,
2010-10-10, 02:04:04,VALID,1002.01,VALID,0,INVALID,153.531,VALID,122.787,VALID,24.5017,VALID,353,VALID,1.0457,
2010-10-10, 02:05:04,VALID,1001.96,VALID,0,INVALID,153.913,VALID,125.402,VALID,24.4628,VALID,6,VALID,0.914844,
2010-10-10, 02:06:04,VALID,1001.96,VALID,0,INVALID,153.867,VALID,128.218,VALID,24.4822,VALID,344,VALID,0.754687,
2010-10-10, 02:07:04,VALID,1001.93,VALID,0,INVALID,153.859,VALID,130.832,VALID,24.5017,VALID,318,VALID,0.645703,
2010-10-10, 02:08:04,VALID,1001.9,VALID,0,INVALID,153.638,VALID,133.749,VALID,24.5388,VALID,348,VALID,0.369141,
2010-10-10, 02:09:04,VALID,1001.87,VALID,0,INVALID,153.546,VALID,137.067,VALID,24.599,VALID,307,VALID,0.243359,
2010-10-10, 02:10:04,VALID,1001.86,VALID,0,INVALID,153.714,VALID,139.682,VALID,24.5777,VALID,300,VALID,0.537109,
2010-10-10, 02:11:04,VALID,1001.83,VALID,0,INVALID,154.096,VALID,142.095,VALID,24.5193,VALID,350,VALID,1.20742,
2010-10-10, 02:12:04,VALID,1001.78,VALID,0,INVALID,154.149,VALID,144.61,VALID,24.5406,VALID,314,VALID,0.509766,
2010-10-10, 02:13:04,VALID,1001.78,VALID,0,INVALID,154.096,VALID,147.325,VALID,24.5796,VALID,286,VALID,0.910547,
2010-10-10, 02:14:04,VALID,1001.76,VALID,0,INVALID,154.164,VALID,149.939,VALID,24.5796,VALID,356,VALID,1.05273,
2010-10-10, 02:15:04,VALID,1001.74,VALID,0,INVALID,154.088,VALID,152.554,VALID,24.6204,VALID,247,VALID,0.289063,
2010-10-10, 02:16:04,VALID,1001.76,VALID,0,INVALID,154.21,VALID,155.169,VALID,24.6185,VALID,9,VALID,0.596484,
2010-10-10, 02:17:04,VALID,1001.75,VALID,0,INVALID,154.309,VALID,158.085,VALID,24.6185,VALID,341,VALID,0.992578,
2010-10-10, 02:18:04,VALID,1001.7,VALID,0,INVALID,154.348,VALID,160.901,VALID,24.638,VALID,358,VALID,1.48633,
2010-10-10, 02:19:04,VALID,1001.68,VALID,0,INVALID,154.439,VALID,163.616,VALID,24.638,VALID,328,VALID,1.18594,
2010-10-10, 02:20:04,VALID,1001.66,VALID,0,INVALID,154.47,VALID,166.532,VALID,24.638,VALID,8,VALID,1.19336,
2010-10-10, 02:21:04,VALID,1001.62,VALID,0,INVALID,154.553,VALID,169.449,VALID,24.6769,VALID,341,VALID,1.53984,
2010-10-10, 02:22:04,VALID,1001.6,VALID,0,INVALID,154.592,VALID,172.264,VALID,24.6769,VALID,341,VALID,1.68594,
2010-10-10, 02:23:04,VALID,1001.53,VALID,0,INVALID,154.622,VALID,175.382,VALID,24.6769,VALID,2,VALID,2.1043,
2010-10-10, 02:24:04,VALID,1001.51,VALID,0,INVALID,154.668,VALID,178.198,VALID,24.6556,VALID,2,VALID,1.95781,
2010-10-10, 02:25:04,VALID,1001.46,VALID,0,INVALID,154.584,VALID,180.913,VALID,24.6788,VALID,15,VALID,2.52969,
2010-10-10, 02:26:04,VALID,1001.43,VALID,0,INVALID,154.5,VALID,183.829,VALID,24.6769,VALID,4,VALID,2.99883,
2010-10-10, 02:27:04,VALID,1001.38,VALID,0,INVALID,154.5,VALID,187.047,VALID,24.6964,VALID,354,VALID,1.80586,
2010-10-10, 02:28:04,VALID,1001.34,VALID,0,INVALID,154.607,VALID,189.863,VALID,24.7743,VALID,333,VALID,1.08477,
2010-10-10, 02:29:04,VALID,1001.3,VALID,0,INVALID,154.447,VALID,192.779,VALID,24.7724,VALID,352,VALID,1.98711,
2010-10-10, 02:30:04,VALID,1001.24,VALID,0,INVALID,154.065,VALID,195.897,VALID,24.8132,VALID,2,VALID,2.51914,
2010-10-10, 02:31:04,VALID,1001.25,VALID,0,INVALID,153.867,VALID,198.813,VALID,24.8308,VALID,360,VALID,2.12812,
2010-10-10, 02:32:04,VALID,1001.2,VALID,0,INVALID,153.592,VALID,201.83,VALID,24.8503,VALID,354,VALID,2.51133,
2010-10-10, 02:33:04,VALID,1001.18,VALID,0,INVALID,146.925,VALID,204.847,VALID,24.93,VALID,6,VALID,1.84844,
2010-10-10, 02:34:04,VALID,1001.15,VALID,0,INVALID,123.107,VALID,207.864,VALID,24.9282,VALID,1,VALID,2.73594,
2010-10-10, 02:35:04,VALID,1001.1,VALID,0,INVALID,137.45,VALID,210.679,VALID,24.9866,VALID,18,VALID,2.59531,
2010-10-10, 02:36:04,VALID,1001.07,VALID,0,INVALID,115.776,VALID,213.797,VALID,24.9866,VALID,1,VALID,2.48828,
2010-10-10, 02:37:04,VALID,1001.05,VALID,0,INVALID,110.741,VALID,216.814,VALID,25.0663,VALID,352,VALID,1.96016,
2010-10-10, 02:38:04,VALID,1001.01,VALID,0,INVALID,120.834,VALID,219.629,VALID,25.1034,VALID,3,VALID,1.81875,
2010-10-10, 02:39:04,VALID,1000.95,VALID,0,VALID,104,VALID,222.646,VALID,25.0839,VALID,356,VALID,2.23008,
2010-10-10, 02:40:04,VALID,1000.94,VALID,0,INVALID,116.63,VALID,225.663,VALID,25.1423,VALID,2,VALID,1.61484,
2010-10-10, 02:41:04,VALID,1000.9,VALID,0,INVALID,118.095,VALID,228.781,VALID,25.2007,VALID,355,VALID,1.63516,
2010-10-10, 02:42:04,VALID,1000.86,VALID,0,VALID,99.8926,VALID,231.697,VALID,25.1813,VALID,355,VALID,3.89141,
2010-10-10, 02:43:04,VALID,1000.84,VALID,0,INVALID,109.078,VALID,234.714,VALID,25.2007,VALID,350,VALID,2.16484,
2010-10-10, 02:44:04,VALID,1000.84,VALID,0,INVALID,118.835,VALID,237.63,VALID,25.2027,VALID,13,VALID,1.59609,
2010-10-10, 02:45:04,VALID,1000.83,VALID,0,INVALID,141.63,VALID,240.647,VALID,25.2416,VALID,2,VALID,2.20781,
2010-10-10, 02:46:04,VALID,1000.81,VALID,0,INVALID,124.931,VALID,243.765,VALID,25.2202,VALID,360,VALID,1.84883,
2010-10-10, 02:47:04,VALID,1000.81,VALID,0,INVALID,124.366,VALID,246.781,VALID,25.2397,VALID,353,VALID,1.7043,
2010-10-10, 02:48:04,VALID,1000.78,VALID,0,INVALID,132.506,VALID,249.798,VALID,25.2592,VALID,8,VALID,1.97539,
2010-10-10, 02:49:04,VALID,1000.8,VALID,0,INVALID,115.722,VALID,253.117,VALID,25.3,VALID,352,VALID,2.01367,
2010-10-10, 02:50:04,VALID,1000.79,VALID,0,INVALID,120.101,VALID,256.536,VALID,25.337,VALID,358,VALID,1.33477,
2010-10-10, 02:51:04,VALID,1000.76,VALID,0,VALID,104,VALID,259.654,VALID,25.3584,VALID,12,VALID,2.56797,
2010-10-10, 02:52:04,VALID,1000.74,VALID,0,VALID,104,VALID,262.771,VALID,25.3779,VALID,10,VALID,2.65078,
2010-10-10, 02:53:04,VALID,1000.75,VALID,0,VALID,104,VALID,266.19,VALID,25.3955,VALID,1,VALID,2.02227,
2010-10-10, 02:54:04,VALID,1000.75,VALID,0,VALID,95.5746,VALID,269.509,VALID,25.4363,VALID,18,VALID,3.08437,
2010-10-10, 02:55:04,VALID,1000.72,VALID,0,VALID,100.251,VALID,273.129,VALID,25.5551,VALID,359,VALID,1.22656,
2010-10-10, 02:56:04,VALID,1000.7,VALID,0,VALID,93.3088,VALID,276.548,VALID,25.5727,VALID,359,VALID,2.32891,
2010-10-10, 02:57:04,VALID,1000.69,VALID,0,VALID,93.7742,VALID,279.867,VALID,25.6311,VALID,351,VALID,1.42109,
2010-10-10, 02:58:04,VALID,1000.69,VALID,0,VALID,91.4474,VALID,283.487,VALID,25.6506,VALID,1,VALID,2.13516,
2010-10-10, 02:59:04,VALID,1000.68,VALID,0,VALID,90.9439,VALID,286.705,VALID,25.6876,VALID,28,VALID,1.74297,
2010-10-10, 03:00:04,VALID,1000.66,VALID,0,VALID,92.668,VALID,290.526,VALID,25.7674,VALID,9,VALID,1.19531,
2010-10-10, 03:01:04,VALID,1000.68,VALID,0,VALID,91.0965,VALID,293.845,VALID,25.8044,VALID,351,VALID,2.06523,
2010-10-10, 03:02:04,VALID,1000.65,VALID,0,VALID,91.9356,VALID,297.365,VALID,25.8453,VALID,344,VALID,1.11523,
2010-10-10, 03:03:04,VALID,1000.63,VALID,0,VALID,90.7989,VALID,300.583,VALID,25.8648,VALID,358,VALID,1.6957,
2010-10-10, 03:04:04,VALID,1000.66,VALID,0,VALID,90.9897,VALID,303.801,VALID,25.9213,VALID,16,VALID,0.85,
2010-10-10, 03:05:04,VALID,1000.65,VALID,0,VALID,89.9445,VALID,307.019,VALID,26.0206,VALID,24,VALID,1.1293,
2010-10-10, 03:06:04,VALID,1000.65,VALID,0,VALID,90.0055,VALID,310.136,VALID,26.0985,VALID,16,VALID,0.844141,
2010-10-10, 03:07:04,VALID,1000.65,VALID,0,VALID,88.9375,VALID,313.052,VALID,26.155,VALID,5,VALID,1.15039,
2010-10-10, 03:08:04,VALID,1000.63,VALID,0,VALID,88.64,VALID,315.768,VALID,26.1959,VALID,37,VALID,1.06992,
2010-10-10, 03:09:04,VALID,1000.62,VALID,0,VALID,88.5179,VALID,318.483,VALID,26.2349,VALID,12,VALID,0.735547,
2010-10-10, 03:10:04,VALID,1000.63,VALID,0,VALID,88.4264,VALID,320.896,VALID,26.2349,VALID,42,VALID,0.93125,
2010-10-10, 03:11:04,VALID,1000.63,VALID,0,VALID,88.4645,VALID,322.807,VALID,26.2739,VALID,40,VALID,1.35547,
2010-10-10, 03:12:04,VALID,1000.64,VALID,0,VALID,88.5866,VALID,324.718,VALID,26.2544,VALID,45,VALID,0.908984,
2010-10-10, 03:13:04,VALID,1000.62,VALID,0,VALID,86.6183,VALID,326.226,VALID,26.2739,VALID,17,VALID,2.13242,
2010-10-10, 03:14:04,VALID,1000.59,VALID,0,VALID,88.2127,VALID,327.534,VALID,26.3128,VALID,24,VALID,1.18281,
2010-10-10, 03:15:04,VALID,1000.54,VALID,0,VALID,87.0455,VALID,328.841,VALID,26.3323,VALID,35,VALID,1.04609,
2010-10-10, 03:16:04,VALID,1000.57,VALID,0,VALID,87.3583,VALID,330.249,VALID,26.3713,VALID,1,VALID,2.32891,
2010-10-10, 03:17:04,VALID,1000.53,VALID,0,VALID,86.7709,VALID,331.053,VALID,26.3907,VALID,43,VALID,2.37188,
2010-10-10, 03:18:04,VALID,1000.51,VALID,0,VALID,87.6024,VALID,331.958,VALID,26.3713,VALID,22,VALID,1.1418,
2010-10-10, 03:19:04,VALID,1000.54,VALID,0,VALID,89.0901,VALID,332.763,VALID,26.4512,VALID,30,VALID,0.925781,
2010-10-10, 03:20:04,VALID,1000.51,VALID,0,VALID,86.8853,VALID,333.266,VALID,26.4102,VALID,35,VALID,2.2832,
2010-10-10, 03:21:04,VALID,1000.51,VALID,0,VALID,87.1066,VALID,333.668,VALID,26.3518,VALID,18,VALID,2.68047,
2010-10-10, 03:22:04,VALID,1000.48,VALID,0,VALID,87.9762,VALID,333.768,VALID,26.3518,VALID,16,VALID,0.788672,
2010-10-10, 03:23:04,VALID,1000.51,VALID,0,VALID,87.9,VALID,333.567,VALID,26.3518,VALID,32,VALID,1.6082,
2010-10-10, 03:24:04,VALID,1000.46,VALID,0,VALID,86.3589,VALID,333.567,VALID,26.2933,VALID,30,VALID,2.28945,
2010-10-10, 03:25:04,VALID,1000.49,VALID,0,VALID,87.8542,VALID,332.964,VALID,26.3323,VALID,66,VALID,1.33906,
2010-10-10, 03:26:04,VALID,1000.47,VALID,0,VALID,88.0296,VALID,332.26,VALID,26.4317,VALID,24,VALID,1.55391,
2010-10-10, 03:27:04,VALID,1000.46,VALID,0,VALID,87.2668,VALID,331.254,VALID,26.4102,VALID,76,VALID,1.43242,
2010-10-10, 03:28:04,VALID,1000.42,VALID,0,VALID,87.8847,VALID,330.55,VALID,26.4687,VALID,356,VALID,0.810938,
2010-10-10, 03:29:04,VALID,1000.43,VALID,0,VALID,88.907,VALID,329.645,VALID,26.607,VALID,3,VALID,0.775391,
2010-10-10, 03:30:04,VALID,1000.4,VALID,0,VALID,87.4422,VALID,328.137,VALID,26.6245,VALID,339,VALID,0.795703,
2010-10-10, 03:31:04,VALID,1000.44,VALID,0,VALID,88.1593,VALID,326.83,VALID,26.7434,VALID,16,VALID,0.764063,
2010-10-10, 03:32:04,VALID,1000.43,VALID,0,VALID,87.221,VALID,325.12,VALID,26.8193,VALID,353,VALID,1.29492,